Home > Weather > Salzgitter > Past weeks

Flag for Germany Past Weather in Salzgitter, Lower Saxony, Germany — Yesterday and Last 2 Weeks

Now
73 °F

Sunny.


Feels Like: 76 °F
Forecast: 67 / 90 °F
Wind: 6 mph from East

Location: Braunschweig Wolfsburg

Current Time: Aug 27, 2016 at 12:12:28 PM

Latest Report: Aug 27, 2016 at 10:50 AM


Visibility: 10 mi

Pressure: 30.15 "Hg

Humidity: 61%

Dew Point: 59 °F

Location of SalzgitterLocation

Past Weather in Salzgitter — Graph

°F

Salzgitter Temperature Yesterday

Maximum temperature yesterday: 93 °F (at 3:20 PM)
Minimum temperature yesterday: 61 °F (at 6:50 AM)
Average temperature yesterday: 83 °F

High & Low Weather Summary for the Past Weeks

 TemperatureHumidityPressure
High93 °F (Aug 26, 3:20 PM)100% (Aug 17, 6:50 AM)30.33 "Hg (Aug 17, 6:50 AM)
Low46 °F (Aug 17, 6:50 AM)21% (Aug 25, 4:50 PM)29.80 "Hg (Aug 18, 3:50 PM)
Average70 °F61%30.09 "Hg
* Reported Aug 12 10:20 AM — Aug 27 10:50 AM, Salzgitter, Weather by CustomWeather, © 2016

Note: Actual official high and low records may vary slightly from our data, if they occured in-between our weather recording intervals... More about our weather records

Advertising

Salzgitter Weather History for the Previous 24 Hours

Scroll right to see more
 ConditionsComfort  
Time TempWeatherWind HumidityBarometerVisibility
10:50 AM
Sat, Aug 27
73 °FSunny.6 mph61%30.15 "Hg10 mi
9:50 AM70 °FSunny.5 mph73%30.15 "Hg10 mi
8:50 AM68 °FPassing clouds.5 mph83%30.15 "HgN/A
7:50 AM64 °FSunny.2 mph94%30.12 "Hg10 mi
9:50 PM
Fri, Aug 26
79 °FClear.6 mph61%30.04 "Hg10 mi
9:20 PM77 °FClear.2 mph65%30.04 "Hg10 mi
8:50 PM79 °FSunny.No wind58%30.01 "Hg10 mi
8:20 PM81 °FSunny.No wind51%30.01 "Hg10 mi
7:50 PM86 °FSunny.2 mph40%30.01 "Hg10 mi
7:20 PM91 °FHot.2 mph32%30.01 "HgN/A
6:50 PM91 °FSunny.3 mph30%30.01 "Hg10 mi
6:20 PM93 °FSunny.2 mph30%30.01 "Hg10 mi
5:50 PM90 °FSunny.3 mph38%30.01 "Hg10 mi
5:20 PM91 °FPassing clouds.5 mph32%30.01 "HgN/A
4:50 PM93 °FSunny.6 mph30%30.01 "Hg10 mi
4:20 PM93 °FPassing clouds.5 mph30%30.01 "HgN/A
3:50 PM93 °FSunny.3 mph28%30.01 "Hg10 mi
3:20 PM93 °FPassing clouds.7 mph28%30.01 "HgN/A
2:50 PM91 °FSunny.6 mph32%30.01 "Hg10 mi
2:20 PM91 °FPassing clouds.7 mph30%30.01 "HgN/A
1:50 PM91 °FSunny.5 mph30%30.01 "Hg10 mi
1:20 PM90 °FSunny.7 mph33%30.01 "Hg10 mi
12:50 PM90 °FSunny.6 mph31%30.01 "Hg10 mi
12:20 PM88 °FSunny.8 mph33%30.01 "Hg10 mi
Weather by CustomWeather, © 2016

See weather overviewHow to use our weather pages